Regional Weather Roundup
Issued by NWS

Home | Current Version | Previous Version | Graphics & Text | Print | Product List | Glossary On
Versions: 1 2 3 4 5 6 7 8 9 10 11 12 13 14 15 16 17 18 19 20 21 22 23 24 25 26 27 28 29 30 31 32 33 34 35 36 37 38 39 40 41 42 43 44 45 46 47 48 49 50
635
ASUS44 KLIX 310901
RWRLA
LOUISIANA WEATHER ROUNDUP
NATIONAL WEATHER SERVICE NEW ORLEANS LA
400 AM CDT THU JUL 31 2014

NOTE: "FAIR" INDICATES FEW OR NO CLOUDS BELOW 12,000 FEET WITH NO
      SIGNIFICANT WEATHER AND/OR OBSTRUCTIONS TO VISIBILITY.
      SKY/WX - SKY CONDITION AND SIGNIFICANT WEATHER.
      TMP - AIR TEMPERATURE.    DP   - DEWPOINT TEMPERATURE.
      RH  - RELATIVE HUMIDITY.  PRES - PRESSURE.
      HX  - HEAT INDEX.         WCI  - WIND CHILL INDEX.

*  THESE STATIONS ARE NOT NWS OR FAA STATIONS AND ARE NOT UNDER
   NWS QUALITY CONTROL.

LAZ040-048-061>063-065-066-069-311000-
SOUTHEAST LOUISIANA

CITY           SKY/WX    TMP DP  RH WIND       PRES   REMARKS
N.O. AUDUBON     N/A     79  64  60 MISG        N/A
N.O. INTL ARPT PTCLDY    74  63  68 SE3       29.98F
N.O. LAKEFRONT PTCLDY    76  67  73 SE6       29.99F
N.O. DOWNTOWN* FAIR      79  61  53 CALM      29.99F
SLIDELL        PTCLDY    65  63  93 N3        29.99F
BATON ROUGE    MOCLDY    70  64  81 E6        29.99F
BOOTHVILLE     CLEAR     75  69  81 CALM      29.99F
BELLE CHASSE   CLEAR     69  65  86 CALM      29.98F
BOGALUSA*      FAIR      68  64  84 N3        30.03S
GALLIANO*      NOT AVBL
NEW ROADS*     FAIR      71  64  78 CALM      29.99F
GONZALES*      FAIR      67  67 100 CALM      29.99S
HAMMOND*       MOCLDY    70  63  78 CALM      30.02R
HOUMA*         CLEAR     69  64  86 CALM      29.98F
PORT FOURCHON* MOSUNNY   81  66  61 CALM      30.00F

$$

LAZ041-044-053-054-311000-
SOUTHWEST LOUISIANA

CITY           SKY/WX    TMP DP  RH WIND       PRES   REMARKS
LAKE CHARLES   CLOUDY    74  67  78 E3        29.98F
LAFAYETTE      PTCLDY    72  68  87 CALM      29.99F
PATTERSON      CLEAR     72  68  88 CALM      30.01F
SALT POINT       N/A     75  70  84 CALM      29.97F
NEW IBERIA     PTCLDY    71  68  90 N3        30.00S
CHENAULT AIRPK MOCLDY    73  66  78 CALM      29.99F

$$

LAZ027-028-311000-
CENTRAL LOUISIANA

CITY           SKY/WX    TMP DP  RH WIND       PRES   REMARKS
FORT POLK      PTCLDY    73  63  70 E5        30.00R
ALEXANDRIA INT MOCLDY    74  64  71 E3        29.99R
ALEXANDRIA     MOCLDY    72  67  84 CALM      30.00F

$$

LAZ001-002-311000-
NORTHWEST LOUISIANA

CITY           SKY/WX    TMP DP  RH WIND       PRES   REMARKS
SHREVEPORT     CLOUDY    74  64  71 E6        30.01R
BARKSDALE AFB  CLOUDY    72  64  77 SE5       30.02R
DTN SHREVEPORT CLOUDY    72  64  76 SE5       30.02R

$$

LAZ014-016-311000-
NORTHEAST LOUISIANA

CITY           SKY/WX    TMP DP  RH WIND       PRES   REMARKS
MONROE         CLOUDY    71  65  81 NE5       30.04R
TALLULAH       MOCLDY    69  66  90 CALM      30.02F

$$




USA.gov is the U.S. government's official web portal to all federal, state and local government web resources and services.